This is the latest recevied weather packets stored in our database for station/object EA3CTN-13. If no packets are shown the sender has not sent any weather packets the latest 10 day(s).
| Time | Temp. | Humidity | Pressure | Rain* | Wind** | Luminosity | Snow |
|---|---|---|---|---|---|---|---|
| 1787674694 | 41.67° C | 19% | 1010.6 hPa | - | - | - | - |
| 1787674213 | 40° C | 23% | 1010.7 hPa | - | - | - | - |
| 1787673733 | 36.11° C | 27% | 1010.7 hPa | - | - | - | - |
| 1787673253 | 32.22° C | 32% | 1011 hPa | - | - | - | - |
| 1787672773 | 32.22° C | 32% | 1010.9 hPa | - | - | - | - |
| 1787672293 | 32.22° C | 31% | 1010.9 hPa | - | - | - | - |
| 1787671813 | 31.67° C | 31% | 1011 hPa | - | - | - | - |
| 1787671333 | 31.67° C | 31% | 1011 hPa | - | - | - | - |
| 1787670853 | 31.67° C | 31% | 1011 hPa | - | - | - | - |
| 1787670373 | 31.67° C | 31% | 1011 hPa | - | - | - | - |
| 1787669893 | 31.67° C | 35% | 1011 hPa | - | - | - | - |
| 1787669413 | 31.67° C | 32% | 1011.1 hPa | - | - | - | - |
| 1787668933 | 31.11° C | 33% | 1011.1 hPa | - | - | - | - |
| 1787668453 | 31.11° C | 35% | 1011.2 hPa | - | - | - | - |
| 1787667973 | 31.11° C | 34% | 1011.2 hPa | - | - | - | - |
| 1787667493 | 31.11° C | 36% | 1011.2 hPa | - | - | - | - |
| 1787667013 | 31.11° C | 36% | 1011.4 hPa | - | - | - | - |
| 1787666533 | 31.11° C | 35% | 1011.2 hPa | - | - | - | - |
| 1787666053 | 31.11° C | 36% | 1011.2 hPa | - | - | - | - |
| 1787665573 | 31.11° C | 36% | 1011.2 hPa | - | - | - | - |
| 1787665093 | 31.11° C | 35% | 1011.1 hPa | - | - | - | - |
| 1787664613 | 31.11° C | 35% | 1011.1 hPa | - | - | - | - |
| 1787664133 | 31.11° C | 35% | 1011.2 hPa | - | - | - | - |
| 1787663654 | 31.11° C | 35% | 1011.2 hPa | - | - | - | - |
| 1787663173 | 31.11° C | 36% | 1011.4 hPa | - | - | - | - |
* Rain since midnight (hover to see other rain measurements)
** Current wind speed in m/s (hover to see current wind gust speed)